Starlink 31497

operational
NORAD ID: 60592 Int'l Des: 2024-150 Owner: SPXS Country: US Constellation: starlink
LEOCIRCULAR

Starlink 31497について

説明を読み込み中...

リアルタイム位置

3D地球を読み込み中...

次回通過

高度履歴

Altitude vs Time

uPlot chart will show altitude changes over time

軌道要素

1 60592U 24150K 25352.32709404 .00000623 00000-0 33178-4 0 9997
2 60592 53.1626 325.0016 0001544 96.9242 263.1935 15.30193181 75586
Epoch: Dec 18, 2025 • Age: 22 hours

現在のステータス

高度 480.6 km
速度 7.63 km/s
衛星直下点 52.79°N, 119.57°W
打ち上げ日 Aug 20, 2024
運用期間 1.3 years
タイプ internet

技術仕様

分類 Payload
質量 730.00 kg
乾燥質量 700.00 kg
総質量 730.00 kg
長さ 0.30 m
直径 4.10 m
スパン 29.00 m
形状 Box + pan
製造者 SPXS
バスタイプ Starlink V2M
フェーズステータス In Orbit
所有者/国 SPXS/US

大規模コンステレーション

Loading constellations...